Weather in Az'yal

Russia / Mari El Republic     56°24′01″N   48°54′39″E
temp.,
°C
wind,
m/s
gust,
m/s
humid.,
%
clouds,
%
prec.,
mm/h
press.,
hPa
HPBL,
m
21 january, fri
fri2100:00−8ssw51490100 0.0 1015474
03:00−10ssw41290100 0.0 1015391
06:00−12s4139174 0.0 1016318
09:00−12s4139196 0.0 1017346
12:00−10s41490100 0.0 1017418
15:00−10sse41292100 0.0 1017373
18:00−12sse41494100 0.0 1018327
21:00−12sse51494100 0.0 1018368
22 january, sat
sat2200:00−12sse51694100 0.0 1018403
03:00−11se51594100 0.0 1018437
06:00−11se51593100 0.0 1018471
09:00−9sse41294100 0.6 1019475
12:00−7sse41094100 0.5 1020553
15:00−7se4994100 0.8 1021530
18:00−7se4995100 0.4 1022459
21:00−7se3995100 0.8 1023377
23 january, sun
sun2300:00−8se4995100 0.2 1024334
03:00−7se41095100 1.2 1025471
06:00−6sse41096100 1.7 1025563
09:00−6sse4995100 2.8 1028517
12:00−5sse4894100 0.5 1030419
15:00−6sse3795100 0.6 1032317
18:00−7sse2697100 0.1 1034204
21:00−7se2697100 0.3 1036192
24 january, mon
mon2400:00−7se2596100 0.3 1037181
03:00−8ese2496100 0.5 1038116
06:00−9se1593100 0.0 1038140
09:00−8se1590100 0.0 1039171
12:00−8sse2385100 0.0 1039165
15:00−9se1194100 0.0 103810
18:00−13se1196100 0.0 103814
21:00−14sse1196100 0.0 103711
25 january, tue
tue2500:00−14sse1197100 0.0 103730
03:00−17sse119856 0.0 10369
06:00−21sse119997 0.0 103610
09:00−18sse249458 0.0 103568
12:00−11s368099 0.0 1033168
15:00−12sse2590100 0.0 1033112
18:00−19sse1198100 0.0 103311
21:00−21sse119793 0.0 103310